Tracking 27126 objects as of 30-Mar-2023
HD Live streaming from Space Station
objects crossing your sky now

STARLINK-4093

Track STARLINK-4093 now!
10-day predictions
STARLINK-4093 is classified as:


NORAD ID: 53157
Int'l Code: 2022-083AB
Perigee: 546.0 km
Apogee: 547.6 km
Inclination: 53.2 °
Period: 95.4 minutes
Semi major axis: 6917 km
RCS: Unknown
Launch date: July 17, 2022
Source: United States (US)
Launch site: AIR FORCE EASTERN TEST RANGE (AFETR)
Your satellite tracking list
Your tracking list is empty




NASA's NSSDC Master Catalog

Two Line Element Set (TLE):
1 53157U 22083AB  23089.30849764  .00018264  00000-0  11620-2 0  9992
2 53157  53.2150 311.6970 0001120  91.5205 268.5915 15.08860842 39642
Source of the keplerian elements: AFSPC